Showing default

KANYINI, 60556

Orbit data source: Space-Track

KANYINI, 60556 is an Australian payload satellite in SSO that was launched on Fri, 16 Aug 2024 UTC via an FALCON 9 launch vehicle from the Air Force Western Test Range (AFWTR). Payload-class satellites include a variety of spacecraft equipped with specific instruments for various scientific and technological missions. These include communications satellites like Starlink; space stations such as the ISS; scientific satellites like the Hubble; Earth observation satellites from companies like Planet Labs, Umbra, and HawkEye 360; GPS; miniature CubeSats for education and research; and military/defense satellites.

Loading next visibility...
Identifier
60556, 2024-149CS
Orbit
SSO
Country
Flag of AUAU / AUS
Related business
Manufacturer
INOVOR
Mission
Operational Amateur Communications
Bus & Motor
CUBESAT 6U, Unknown motor
Mass
12 kg wet, 12 kg dry
Launch date (UTC)
2024-08-16 (1 year ago)
Launch vehicle
FALCON 9
Launch site
Air Force Western Test Range (AFWTR)
Object type
Payload
Rocket body
Debris
Shape & HBR
Box + 2 Pan, 0.2 m
Radar Cross Section
0.092 m², Small (<0.1 m²)

Expand to show TLE details & history
Last TLE update: 18 hours ago

TLE from 18 hours ago
0 KANYINI
1 60556U 24149CS  25286.91996305  .00028798  00000-0  84435-3 0  9998
2 60556  97.3978   5.1211 0002782  72.0017 288.1529 15.35145645 64513
Epoch: 2025-10-13T22:04Z
TLE epoch observation values (Epoch: 2025-10-13T22:04:44.807Z)
Latitude
-0.00006°
Longitude
11.21858°
Altitude
463.007 km
Speed
7.635 km/s
True Right ascension
00h 20m 29s
True Declination
0° 00' 00"
Sunlit
Object was in full shadow at epoch
Visualization orbit readout
Latitude
Unknown
Longitude
Unknown
Altitude
Unknown
Speed
Unknown
Apparent Right ascension
Unknown
Apparent Declination
Unknown
Sunlit
N/A
Visualization observer readout
Local Sidereal Time
10:35:08
Azimuth
Unknown
Elevation
Unknown
Doppler factor
Unknown
Orbital elements
Apogee altitude
459.335 km
Perigee altitude
455.532 km
Semi-major axis
6,835.57 km
Eccentricity
0.00028
Inclination
97.3978°
RAAN
5.1211°
Arg. of periapsis
72.0017°
True anomaly
288.1226°
Mean anomaly
288.1529°
Eccentric anomaly
288.13775°
Mean motion
3.84044 °/min
Orbital period
93.74 mins
BSTAR
0.00084435
Loading maneuver chart data...
Computing Atmospheric mass density...
Loading historical data...
Loading historical data...
Loading historical data...
Loading historical data...
Loading historical data...
Loading historical data...
Loading historical data...

Documentation

Showing up to 5 results
|